Location: New Plymouth
(39.0670°S, 174.0830°E)
Time: 06:03:55
(UTC+12:00)

Daily predictions for brighter satellites

Satellite Brightness Start Highest point End
(mag) Time Altitude Azimuth Time Altitude Azimuth Time Altitude Azimuth
USA 267 4.4 18:00:19 10° NNE 18:06:39 50° NW 18:13:03 10° SW
Okean O Rocket 2.1 18:05:42 10° SSE 18:09:52 40° E 18:13:59 10° N
Cosmos 2082 Rocket 2.5 18:04:10 10° SSW 18:09:58 78° WNW 18:15:40 10° NNE
PSLV R/B 4.3 18:07:38 10° S 18:11:40 70° WSW 18:15:44 10° NNW
CZ-4B R/B 3.4 18:06:53 10° SSE 18:12:10 47° E 18:17:17 10° N
Cosmos 1452 Rocket 4.1 18:09:29 10° NNE 18:14:19 38° ENE 18:19:14 10° SE
CENTAUR R/B 2.9 18:09:41 10° SW 18:15:10 57° WNW 18:20:12 10° NNE
Cosmos 1862 4.4 18:15:01 10° SSE 18:18:24 25° ESE 18:21:46 10° NE
MOS 1 Rocket 4.1 18:14:39 10° NE 18:18:40 29° ESE 18:22:33 10° SSE
PAYLOAD B 4.3 18:16:54 10° SSE 18:22:37 84° ENE 18:28:13 10° NNW
Cosmos 1633 2.7 18:21:17 10° S 18:24:58 78° W 18:28:33 10° N
GPS 2-04 Rocket1 4.2 18:24:43 10° NW 18:27:55 24° NNE 18:31:00 10° ENE
Envisat 3.0 18:25:05 10° SSE 18:30:14 69° ENE 18:35:19 10° N
Cosmos 1842 Rocket 4.1 18:25:54 10° NNW 18:30:23 65° W 18:34:56 10° S
CORIOLIS 4.5 18:25:14 10° SSE 18:30:28 46° E 18:35:40 10° N
Cosmos 1441 Rocket 3.8 18:26:50 10° S 18:30:38 38° ESE 18:34:19 10° NE
deb Kosmos-1763 4.4 18:29:10 10° SSW 18:32:47 67° WNW 18:36:22 10° N
BREEZE-M DEB (TANK) 3.0 18:31:51 10° WSW 18:33:55 36° NW 18:37:13 10° NE
Cosmos 1869 4.1 18:32:08 10° NNW 18:35:58 53° W 18:39:50 10° S
Lacrosse 5 rocket 3.6 18:34:32 10° WSW 18:36:36 14° SSW 18:38:39 10° S
AQUARIUS 4.2 18:32:13 10° SSE 18:36:45 59° E 18:41:13 10° N
BREEZE M DEB (TANK) 2.8 18:35:30 10° SW 18:36:47 19° S 18:38:00 13° SE
Cosmos 676 Rocket 4.0 18:33:21 10° SSW 18:38:40 81° ESE 18:43:57 10° NNE
Cosmos 1420 Rocket 4.2 18:35:38 10° NNW 18:40:54 77° WSW 18:46:11 10° SSE
Cosmos 332 Rocket 3.8 18:36:12 10° NNW 18:41:08 86° ENE 18:46:08 10° SSE
Cosmos 1606 4.0 18:38:32 10° NE 18:41:19 19° E 18:43:19 14° SE
Lacrosse 4 Rocket 2.8 18:39:42 10° S 18:43:20 23° SE 18:45:24 17° E
Cosmos 1151 Rocket 4.4 18:42:51 10° NE 18:45:51 18° E 18:46:29 18° ESE
Cosmos 2366 rocket 4.1 18:39:48 10° S 18:46:17 85° W 18:52:36 10° N
CZ-2C R/B 3.2 18:42:31 10° NE 18:47:36 39° ESE 18:52:48 10° S
Sich 1 3.6 18:44:07 10° S 18:48:12 35° ESE 18:52:15 10° NE
Aureole 1 Rocket 3.4 18:48:14 10° SSW 18:51:55 65° WNW 18:56:36 10° N
Cosmos 371 Rocket 4.2 18:48:22 10° NW 18:53:05 50° WSW 18:57:53 10° S
Milstar 3 Cent rocket 3.7 18:49:04 10° WNW 18:54:43 28° N 18:58:41 11° NE
Cosmos 1743 Rocket 4.2 18:52:15 10° SSW 18:56:37 59° W 19:00:58 10° N
Cosmos 2369 Rocket 2.2 18:51:33 10° NNW 18:57:14 71° ENE 19:02:59 10° SSE
IRS-1C Rocket 4.3 18:55:13 10° SSE 19:00:22 46° E 19:05:27 10° N
Cosmos 1943 Rocket 2.5 18:58:23 10° NNW 19:03:52 67° WSW 19:09:25 10° SSE
CZ-4 R/B 3.5 19:07:54 11° NE 19:07:54 11° NE 19:08:11 10° NNE
Cosmos 1110 Rocket 4.2 19:04:46 10° N 19:09:48 49° ENE 19:14:23 12° SSE
FengYun 1-2 T 4.2 19:06:23 10° SSE 19:12:04 74° ENE 19:17:36 10° N
CREW DRAGON DEMO-1 DEB 4.5 19:09:29 10° W 19:12:16 29° SSW 19:13:30 22° S
SL-27 R/B 3.3 19:10:43 10° S 19:13:19 32° SE 19:13:19 32° SE
Cosmos 1741 Rocket 4.0 19:09:05 10° SSW 19:14:20 61° ESE 19:19:30 10° NNE
Cosmos 2263 4.1 19:09:00 10° NNW 19:14:41 71° ENE 19:20:22 10° SSE
YAOGAN 6 4.5 19:11:55 10° S 19:15:19 33° WSW 19:18:42 10° NW
CZ-4C R/B 3.1 19:18:24 10° NW 19:26:43 77° SW 19:33:45 11° SSE
Cosmos 1666 Rocket 3.5 19:22:47 10° S 19:27:12 62° E 19:30:12 19° NNE
IRIDIUM 106 4.4 19:22:20 10° S 19:27:31 52° E 19:32:37 10° NNE
H-2A R/B 3.9 19:24:39 10° WNW 19:30:05 58° NNE 19:41:40 27° E
DELTA 2 R/B (1) 3.5 19:25:16 10° W 19:30:53 86° S 19:32:42 45° E
ATLAS 3B R/B 3.6 19:28:18 10° SW 19:35:09 50° WNW 19:41:42 10° N
COSMOS 2455 4.5 19:30:49 10° WNW 19:36:07 31° SW 19:41:27 10° S
Cosmos 1939 Rocket 2.7 19:35:32 40° SSE 19:36:56 87° ENE 19:40:50 10° NNW
Okean-O 2.5 19:39:16 37° SSE 19:41:00 78° ENE 19:45:27 10° N
Okean O Rocket 4.4 19:42:56 10° SSW 19:45:54 18° WSW 19:48:49 10° WNW
Cosmos 1933 3.7 19:44:19 10° N 19:47:32 55° NNW 19:47:32 55° NNW
Helios 1A Rocket 3.9 19:47:25 10° S 19:51:25 46° WSW 19:55:21 10° NW
CZ-2C R/B 3.6 19:53:39 79° NNW 19:53:53 83° WNW 19:58:26 10° SSW
Cosmos 1331 Rocket 4.1 19:49:06 10° NNW 19:54:15 71° WSW 19:57:18 25° S
Cosmos 1633 Rocket 3.1 19:49:54 10° S 19:54:24 79° W 19:54:34 77° NW
Cosmos 1833 4.1 19:52:29 10° SSW 19:58:09 71° ESE 19:58:09 71° ESE
Cosmos 1934 Rocket 3.9 19:53:25 10° S 19:59:44 88° E 20:06:04 10° N
Cosmos 1328 Rocket 3.9 19:58:13 10° NNW 20:02:29 64° W 20:02:29 64° W
Meteor 1-25 Rocket 4.1 19:59:14 10° S 20:04:46 81° SE 20:04:46 81° SE
Cosmos 1339 Rocket 4.3 20:02:08 10° N 20:08:16 82° E 20:14:26 10° S
Lacrosse 4 Rocket 3.0 20:17:57 10° SW 20:21:48 36° W 20:21:48 36° W
BREEZE-M DEB (TANK) 4.3 20:23:27 10° NW 20:39:25 60° N 20:39:25 60° N
